H1 CPF 1 NER 2017 9 25 9 7681 glonass103 H2 0606202 9103 29671 2017 9 25 0 0 0 2017 9 28 23 45 0 900 1 1 0 0 0 H9 10 0 58021 0.00000 0 -13494098.417 5031772.797 -21042477.457 10 0 58021 900.00000 0 -12276856.930 2654886.159 -22198315.196 10 0 58021 1800.00000 0 -11198628.048 86904.334 -22922934.282 10 0 58021 2700.00000 0 -10297121.266 -2612518.174 -23202619.140 10 0 58021 3600.00000 0 -9599090.447 -5377582.730 -23032295.621 10 0 58021 4500.00000 0 -9119293.215 -8138849.525 -22415601.605 10 0 58021 5400.00000 0 -8859971.978 -10825890.701 -21364791.254 10 0 58021 6300.00000 0 -8810875.540 -13369984.657 -19900476.635 10 0 58021 7200.00000 0 -8949817.695 -15706741.335 -18051213.085 10 0 58021 8100.00000 0 -9243747.220 -17778551.899 -15852937.302 10 0 58021 9000.00000 0 -9650282.940 -19536763.733 -13348269.276 10 0 58021 9900.00000 0 -10119648.767 -20943493.083 -10585691.464 10 0 58021 10800.00000 0 -10596927.532 -21973002.690 -7618620.365 10 0 58021 11700.00000 0 -11024539.610 -22612589.350 -4504387.405 10 0 58021 12600.00000 0 -11344843.311 -22862946.214 -1303147.549 10 0 58021 13500.00000 0 -11502749.101 -22737985.903 1923264.757 10 0 58021 14400.00000 0 -11448239.011 -22264132.319 5112511.833 10 0 58021 15300.00000 0 -11138686.390 -21479110.540 8202939.903 10 0 58021 16200.00000 0 -10540879.040 -20430284.655 11134755.694 10 0 58021 17100.00000 0 -9632660.570 -19172611.838 13851171.031 10 0 58021 18000.00000 0 -8404120.231 -17766296.751 16299494.262 10 0 58021 18900.00000 0 -6858279.594 -16274242.911 18432148.193 10 0 58021 19800.00000 0 -5011244.857 -14759406.164 20207595.250 10 0 58021 20700.00000 0 -2891815.410 -13282159.952 21591151.902 10 0 58021 21600.00000 0 -540561.551 -11897781.935 22555676.223 10 0 58021 22500.00000 0 1991593.759 -10654167.036 23082114.421 10 0 58021 23400.00000 0 4645233.348 -9589863.185 23159894.468 10 0 58021 24300.00000 0 7354670.112 -8732513.013 22787157.613 10 0 58021 25200.00000 0 10050446.904 -8097768.322 21970821.346 10 0 58021 26100.00000 0 12662009.396 -7688724.609 20726470.573 10 0 58021 27000.00000 0 15120441.253 -7495901.230 19078076.992 10 0 58021 27900.00000 0 17361147.371 -7497769.643 17057550.229 10 0 58021 28800.00000 0 19326372.098 -7661808.753 14704127.889 10 0 58021 29700.00000 0 20967445.654 -7946043.448 12063615.323 10 0 58021 30600.00000 0 22246662.870 -8301001.218 9187489.431 10 0 58021 31500.00000 0 23138713.563 -8672003.193 6131884.318 10 0 58021 32400.00000 0 23631603.048 -9001690.889 2956479.497 10 0 58021 33300.00000 0 23727023.154 -9232679.283 -276686.038 10 0 58021 34200.00000 0 23440157.992 -9310221.019 -3504448.535 10 0 58021 35100.00000 0 22798933.483 -9184765.921 -6663776.506 10 0 58021 36000.00000 0 21842743.845 -8814304.608 -9693023.000 10 0 58021 36900.00000 0 20620711.067 -8166394.667 -12533146.324 10 0 58021 37800.00000 0 19189553.459 -7219782.037 -15128873.470 10 0 58021 38700.00000 0 17611155.919 -5965548.138 -17429782.328 10 0 58021 39600.00000 0 15949946.815 -4407734.328 -19391280.878 10 0 58021 40500.00000 0 14270193.880 -2563417.930 -20975464.575 10 0 58021 41400.00000 0 12633333.915 -462237.690 -22151836.152 10 0 58021 42300.00000 0 11095448.672 1854610.019 -22897875.360 10 0 58021 43200.00000 0 9704991.961 4335860.951 -23199449.675 10 0 58021 44100.00000 0 8500861.414 6922095.409 -23051060.254 10 0 58021 45000.00000 0 7510893.218 9547992.902 -22455920.743 10 0 58021 45900.00000 0 6750839.703 12144835.240 -21425869.608 10 0 58021 46800.00000 0 6223869.357 14643154.619 -19981119.575 10 0 58021 47700.00000 0 5920607.066 16975417.950 -18149850.456 10 0 58021 48600.00000 0 5819710.107 19078637.816 -15967654.176 10 0 58021 49500.00000 0 5888953.603 20896803.920 -13476843.049 10 0 58021 50400.00000 0 6086778.516 22383036.383 -10725634.566 10 0 58021 51300.00000 0 6364236.589 23501373.878 -7767227.821 10 0 58021 52200.00000 0 6667250.630 24228124.442 -4658788.341 10 0 58021 53100.00000 0 6939095.894 24552724.457 -1460359.762 10 0 58021 54000.00000 0 7122999.295 24478071.326 1766278.174 10 0 58021 54900.00000 0 7164748.383 24020316.533 4958784.790 10 0 58021 55800.00000 0 7015201.519 23208127.681 8055445.591 10 0 58021 56700.00000 0 6632594.465 22081449.653 10996349.860 10 0 58021 57600.00000 0 5984546.666 20689815.427 13724537.299 10 0 58021 58500.00000 0 5049682.517 19090275.600 16187092.502 10 0 58021 59400.00000 0 3818798.278 17345031.364 18336166.903 10 0 58021 60300.00000 0 2295523.684 15518868.101 20129908.859 10 0 58021 61200.00000 0 496447.835 13676495.357 21533283.837 10 0 58021 62100.00000 0 -1549299.172 11879903.157 22518768.467 10 0 58021 63000.00000 0 -3800994.991 10185844.506 23066904.215 10 0 58021 63900.00000 0 -6207768.050 8643549.246 23166698.674 10 0 58021 64800.00000 0 -8710478.064 7292765.378 22815865.122 10 0 58021 65700.00000 0 -11243958.422 6162210.798 22020893.812 10 0 58021 66600.00000 0 -13739528.967 5268501.700 20796951.523 10 0 58021 67500.00000 0 -16127675.595 4615604.147 19167609.296 10 0 58021 68400.00000 0 -18340785.051 4194833.321 17164401.648 10 0 58021 69300.00000 0 -20315820.021 3985401.750 14826224.315 10 0 58021 70200.00000 0 -21996821.225 3955494.129 12198581.096 10 0 58021 71100.00000 0 -23337129.894 4063823.419 9332693.968 10 0 58021 72000.00000 0 -24301235.275 4261601.816 6284494.100 10 0 58021 72900.00000 0 -24866167.685 4494841.649 3113514.355 10 0 58021 73800.00000 0 -25022377.034 4706886.608 -118293.574 10 0 58021 74700.00000 0 -24774059.013 4841063.336 -3347792.078 10 0 58021 75600.00000 0 -24138915.301 4843337.996 -6511914.202 10 0 58021 76500.00000 0 -23147358.781 4664862.305 -9548916.784 10 0 58021 77400.00000 0 -21841199.046 4264298.510 -12399603.321 10 0 58021 78300.00000 0 -20271865.886 3609822.859 -15008490.798 10 0 58021 79200.00000 0 -18498248.202 2680721.491 -17324896.356 10 0 58021 80100.00000 0 -16584241.886 1468510.866 -19303921.992 10 0 58021 81000.00000 0 -14596111.970 -22464.274 -20907318.259 10 0 58021 81900.00000 0 -12599781.258 -1774979.751 -22104211.110 10 0 58021 82800.00000 0 -10658159.870 -3759428.469 -22871679.220 10 0 58021 83700.00000 0 -8828627.115 -5934842.410 -23195172.649 10 0 58021 84600.00000 0 -7160769.698 -8250396.130 -23068766.979 10 0 58021 85500.00000 0 -5694468.618 -10647327.958 -22495250.346 10 0 58022 0.00000 0 -4458411.729 -13061198.413 -21486043.943 10 0 58022 900.00000 0 -3469090.942 -15424392.134 -20060959.215 10 0 58022 1800.00000 0 -2730322.034 -17668759.810 -18247798.383 10 0 58022 2700.00000 0 -2233305.022 -19728291.738 -16081806.349 10 0 58022 3600.00000 0 -1957218.470 -21541714.071 -13604985.417 10 0 58022 4500.00000 0 -1870321.817 -23054901.458 -10865285.764 10 0 58022 5400.00000 0 -1931517.704 -24223008.274 -7915686.743 10 0 58022 6300.00000 0 -2092308.329 -25012231.765 -4813185.734 10 0 58022 7200.00000 0 -2299063.877 -25401135.412 -1617712.867 10 0 58022 8100.00000 0 -2495508.368 -25381478.709 1609008.889 10 0 58022 9000.00000 0 -2625319.474 -24958519.389 4804637.873 10 0 58022 9900.00000 0 -2634734.099 -24150775.542 7907400.808 10 0 58022 10800.00000 0 -2475051.114 -22989256.937 10857271.430 10 0 58022 11700.00000 0 -2104926.560 -21516196.424 13597119.163 10 0 58022 12600.00000 0 -1492364.854 -19783332.798 16073806.618 10 0 58022 13500.00000 0 -616321.628 -17849814.852 18239215.517 10 0 58022 14400.00000 0 532150.621 -15779812.102 20051181.648 10 0 58022 15300.00000 0 1949264.327 -13639930.043 21474320.759 10 0 58022 16200.00000 0 3618395.743 -11496536.152 22480729.058 10 0 58022 17100.00000 0 5510528.563 -9413107.071 23050544.002 10 0 58022 18000.00000 0 7585227.226 -7447707.108 23172353.226 10 0 58022 18900.00000 0 9792102.760 -5650703.294 22843442.156 10 0 58022 19800.00000 0 12072713.109 -4062812.994 22069873.607 10 0 58022 20700.00000 0 14362821.002 -2713566.763 20866395.759 10 0 58022 21600.00000 0 16594916.789 -1620252.065 19256178.229 10 0 58022 22500.00000 0 18700901.552 -787383.526 17270379.399 10 0 58022 23400.00000 0 20614817.966 -206723.237 14947551.826 10 0 58022 24300.00000 0 22275513.534 142148.947 12332896.155 10 0 58022 25200.00000 0 23629122.778 290738.851 9477377.545 10 0 58022 26100.00000 0 24631262.001 280061.919 6436722.034 10 0 58022 27000.00000 0 25248842.193 158655.502 3270313.344 10 0 58022 27900.00000 0 25461421.830 -19734.399 40013.142 10 0 58022 28800.00000 0 25262041.163 -198691.389 -3191070.017 10 0 58022 29700.00000 0 24657502.207 -321781.417 -6359836.691 10 0 58022 30600.00000 0 23668082.858 -335204.492 -9404450.462 10 0 58022 31500.00000 0 22326698.258 -190330.159 -12265562.852 10 0 58022 32400.00000 0 20677546.544 153993.021 -14887483.444 10 0 58022 33300.00000 0 18774298.279 729453.445 -17219271.000 10 0 58022 34200.00000 0 16677908.147 1556702.613 -19215723.612 10 0 58022 35100.00000 0 14454143.135 2644257.986 -20838248.748 10 0 58022 36000.00000 0 12170932.602 3987928.168 -22055597.114 10 0 58022 36900.00000 0 9895652.347 5570783.416 -22844447.575 10 0 58022 37800.00000 0 7692456.342 7363671.292 -23189833.733 10 0 58022 38700.00000 0 5619766.710 9326254.399 -23085406.228 10 0 58022 39600.00000 0 3728024.917 11408525.511 -22533527.955 10 0 58022 40500.00000 0 2057795.377 13552735.998 -21545202.635 10 0 58022 41400.00000 0 638297.285 15695656.877 -20139839.992 10 0 58022 42300.00000 0 -513577.448 17771078.556 -18344863.602 10 0 58022 43200.00000 0 -1393722.724 19712446.161 -16195169.931 10 0 58022 44100.00000 0 -2010737.232 21455522.223 -13732449.437 10 0 58022 45000.00000 0 -2385309.854 22940967.622 -11004382.760 10 0 58022 45900.00000 0 -2549099.172 24116735.384 -8063726.947 10 0 58022 46800.00000 0 -2543155.166 24940179.563 -4967308.364 10 0 58022 47700.00000 0 -2415949.679 25379793.014 -1774940.551 10 0 58022 48600.00000 0 -2221098.048 25416502.935 1451713.554 10 0 58022 49500.00000 0 -2014866.906 25044470.891 4650314.607 10 0 58022 50400.00000 0 -1853571.834 24271364.021 7759033.856 10 0 58022 51300.00000 0 -1790973.258 23118085.611 10717732.692 10 0 58022 52200.00000 0 -1875779.262 21617975.065 13469113.297 10 0 58022 53100.00000 0 -2149359.867 19815509.015 15959819.105 10 0 58022 54000.00000 0 -2643769.085 17764555.691 18141464.667 10 0 58022 54900.00000 0 -3380158.728 15526253.080 19971575.437 10 0 58022 55800.00000 0 -4367652.256 13166597.149 21414419.333 10 0 58022 56700.00000 0 -5602728.262 10753838.620 22441713.667 10 0 58022 57600.00000 0 -7069142.455 8355795.111 23033192.982 10 0 58022 58500.00000 0 -8738394.685 6037189.608 23177025.587 10 0 58022 59400.00000 0 -10570724.951 3857125.682 22870069.171 10 0 58022 60300.00000 0 -12516599.985 1866804.818 22117958.674 10 0 58022 61200.00000 0 -14518631.011 107581.849 20935022.643 10 0 58022 62100.00000 0 -16513844.525 -1390559.207 19344027.653 10 0 58022 63000.00000 0 -18436212.296 -2610043.915 17375753.756 10 0 58022 63900.00000 0 -20219334.763 -3546215.898 15068407.621 10 0 58022 64800.00000 0 -21799164.663 -4207292.770 12466883.614 10 0 58022 65700.00000 0 -23116655.053 -4613770.851 9621886.619 10 0 58022 66600.00000 0 -24120218.313 -4797303.898 6588933.901 10 0 58022 67500.00000 0 -24767890.343 -4799104.133 3427256.319 10 0 58022 68400.00000 0 -25029106.503 -4667934.835 198621.838 10 0 58022 69300.00000 0 -24886012.494 -4457781.831 -3033893.599 10 0 58022 70200.00000 0 -24334253.621 -4225305.353 -6207161.429 10 0 58022 71100.00000 0 -23383208.653 -4027183.319 -9259255.103 10 0 58022 72000.00000 0 -22055658.826 -3917461.609 -12130677.027 10 0 58022 72900.00000 0 -20386907.106 -3945026.259 -14765531.916 10 0 58022 73800.00000 0 -18423386.620 -4151306.582 -17112622.324 10 0 58022 74700.00000 0 -16220818.939 -4568307.623 -19126444.166 10 0 58022 75600.00000 0 -13842001.769 -5217055.456 -20768063.036 10 0 58022 76500.00000 0 -11354320.663 -6106520.516 -22005855.062 10 0 58022 77400.00000 0 -8827090.284 -7233063.233 -22816099.358 10 0 58022 78300.00000 0 -6328836.825 -8580423.810 -23183412.567 10 0 58022 79200.00000 0 -3924634.539 -10120254.913 -23101019.331 10 0 58022 80100.00000 0 -1673606.119 -11813173.370 -22570855.781 10 0 58022 81000.00000 0 373311.209 -13610285.621 -21603506.276 10 0 58022 81900.00000 0 2175243.820 -15455122.439 -20217976.539 10 0 58022 82800.00000 0 3702829.111 -17285901.942 -18441309.076 10 0 58022 83700.00000 0 4939175.460 -19038026.974 -16308049.311 10 0 58022 84600.00000 0 5880298.117 -20646713.721 -13859573.151 10 0 58022 85500.00000 0 6535015.736 -22049643.402 -11143288.963 10 0 58023 0.00000 0 6924314.344 -23189528.237 -8211728.836 10 0 58023 900.00000 0 7080206.979 -24016486.252 -5121545.327 10 0 58023 1800.00000 0 7044137.731 -24490128.242 -1932432.872 10 0 58023 2700.00000 0 6864997.119 -24581269.690 1294008.069 10 0 58023 3600.00000 0 6596831.919 -24273198.707 4495442.783 10 0 58023 4500.00000 0 6296344.562 -23562446.008 7609989.194 10 0 58023 5400.00000 0 6020286.253 -22459024.938 10577398.331 10 0 58023 6300.00000 0 5822852.337 -20986130.222 13340206.932 10 0 58023 7200.00000 0 5753188.648 -19179306.385 15844840.857 10 0 58023 8100.00000 0 5853113.383 -17085118.361 18042648.855 10 0 58023 9000.00000 0 6155150.553 -14759377.234 19890847.170 10 0 58023 9900.00000 0 6680958.648 -12264992.564 21353356.734 10 0 58023 10800.00000 0 7440222.266 -9669538.281 22401516.497 10 0 58023 11700.00000 0 8430055.630 -7042631.382 23014658.324 10 0 58023 12600.00000 0 9634945.911 -4453230.976 23180531.124 10 0 58023 13500.00000 0 11027241.957 -1966969.081 22895564.484 10 0 58023 14400.00000 0 12568171.154 356376.028 22164964.830 10 0 58023 15300.00000 0 14209344.722 2465158.320 21002640.203 10 0 58023 16200.00000 0 15894690.743 4317798.488 19430953.045 10 0 58023 17100.00000 0 17562735.483 5884292.519 17480303.789 10 0 58023 18000.00000 0 19149137.933 7147229.858 15188551.740 10 0 58023 18900.00000 0 20589370.844 8102277.387 12600283.312 10 0 58023 19800.00000 0 21821434.405 8758108.139 9765941.244 10 0 58023 20700.00000 0 22788486.411 9135777.478 6740831.959 10 0 58023 21600.00000 0 23441275.792 9267573.645 3584031.202 10 0 58023 22500.00000 0 23740274.400 9195392.500 357210.807 10 0 58023 23400.00000 0 23657414.770 8968707.211 -2876588.421 10 0 58023 24300.00000 0 23177358.693 8642221.507 -6054211.375 10 0 58023 25200.00000 0 22298241.922 8273308.850 -9113643.914 10 0 58023 26100.00000 0 21031863.280 7919349.102 -11995241.739 10 0 58023 27000.00000 0 19403310.776 7635078.320 -14642906.947 10 0 58023 27900.00000 0 17450041.666 7470066.211 -17005187.901 10 0 58023 28800.00000 0 15220456.994 7466429.518 -19036280.151 10 0 58023 29700.00000 0 12772032.444 7656878.705 -20696909.021 10 0 58023 30600.00000 0 10169085.711 8063180.252 -21955077.470 10 0 58023 31500.00000 0 7480275.399 8695098.418 -22786666.092 10 0 58023 32400.00000 0 4775936.724 9549859.527 -23175875.591 10 0 58023 33300.00000 0 2125365.139 10612159.464 -23115505.404 10 0 58023 34200.00000 0 -405839.788 11854712.124 -22607065.383 10 0 58023 35100.00000 0 -2758261.527 13239314.154 -21660720.669 10 0 58023 36000.00000 0 -4880883.869 14718380.132 -20295072.709 10 0 58023 36900.00000 0 -6732949.161 16236883.228 -18536782.247 10 0 58023 37800.00000 0 -8285383.612 17734620.134 -16420042.521 10 0 58023 38700.00000 0 -9521733.806 19148706.225 -13985913.353 10 0 58023 39600.00000 0 -10438578.486 20416197.679 -11281528.912 10 0 58023 40500.00000 0 -11045401.220 21476732.551 -8359193.954 10 0 58023 41400.00000 0 -11363931.322 22275082.043 -5275384.972 10 0 58023 42300.00000 0 -11426981.900 22763506.962 -2089674.450 10 0 58023 43200.00000 0 -11276834.311 22903822.261 1136402.515 10 0 58023 44100.00000 0 -10963236.659 22669084.303 4340518.835 10 0 58023 45000.00000 0 -10541099.667 22044830.682 7460742.149 10 0 58023 45900.00000 0 -10067985.720 21029820.541 10436716.173 10 0 58023 46800.00000 0 -9601495.405 19636243.420 13210815.195 10 0 58023 47700.00000 0 -9196660.374 17889386.338 15729250.394 10 0 58023 48600.00000 0 -8903451.343 15826770.800 17943107.452 10 0 58023 49500.00000 0 -8764505.726 13496793.085 19809295.923 10 0 58023 50400.00000 0 -8813170.767 10956921.744 21291392.018 10 0 58023 51300.00000 0 -9071945.433 8271524.554 22360358.274 10 0 58023 52200.00000 0 -9551388.285 5509412.754 22995125.440 10 0 58023 53100.00000 0 -10249539.491 2741202.723 23183024.153 10 0 58023 54000.00000 0 -11151884.027 36603.231 22920056.527 10 0 58023 54900.00000 0 -12231860.579 -2538259.711 22211000.555 10 0 58023 55800.00000 0 -13451897.624 -4923369.127 21069343.269 10 0 58023 56700.00000 0 -14764935.715 -7067088.760 19517041.866 10 0 58023 57600.00000 0 -16116373.915 -8928084.421 17584115.460 10 0 58023 58500.00000 0 -17446359.602 -10476813.403 15308073.739 10 0 58023 59400.00000 0 -18692325.471 -11696518.331 12733192.425 10 0 58023 60300.00000 0 -19791666.123 -12583682.736 9909648.982 10 0 58023 61200.00000 0 -20684439.787 -13147928.547 6892535.567 10 0 58023 62100.00000 0 -21315978.997 -13411359.937 3740769.204 10 0 58023 63000.00000 0 -21639297.447 -13407382.037 515921.909 10 0 58023 63900.00000 0 -21617188.764 -13179046.035 -2719004.327 10 0 58023 64800.00000 0 -21223926.281 -12776992.978 -5900831.461 10 0 58023 65700.00000 0 -20446490.284 -12257086.122 -8967461.218 10 0 58023 66600.00000 0 -19285269.984 -11677835.080 -11859105.869 10 0 58023 67500.00000 0 -17754210.484 -11097723.816 -14519467.907 10 0 58023 68400.00000 0 -15880399.208 -10572558.102 -16896844.189 10 0 58023 69300.00000 0 -13703110.526 -10152946.551 -18945132.175 10 0 58023 70200.00000 0 -11272350.409 -9882022.728 -20624718.688 10 0 58023 71100.00000 0 -8646963.879 -9793504.626 -21903234.714 10 0 58023 72000.00000 0 -5892386.087 -9910172.618 -22756162.908 10 0 58023 72900.00000 0 -3078132.032 -10242828.469 -23167287.980 10 0 58023 73800.00000 0 -275129.933 -10789777.260 -23128983.499 10 0 58023 74700.00000 0 2446991.065 -11536851.750 -22642331.844 10 0 58023 75600.00000 0 5022547.395 -12457976.034 -21717077.271 10 0 58023 76500.00000 0 7392273.875 -13516243.013 -20371414.925 10 0 58023 77400.00000 0 9505522.734 -14665459.218 -18631621.445 10 0 58023 78300.00000 0 11322100.636 -15852091.591 -16531535.319 10 0 58023 79200.00000 0 12813670.651 -17017534.749 -14111897.503 10 0 58023 80100.00000 0 13964663.983 -18100604.358 -11419565.046 10 0 58023 81000.00000 0 14772666.373 -19040153.414 -8506612.381 10 0 58023 81900.00000 0 15248265.425 -19777703.305 -5429336.695 10 0 58023 82800.00000 0 15414366.844 -20259981.026 -2247185.439 10 0 58023 83700.00000 0 15305009.172 -20441257.740 978374.736 10 0 58023 84600.00000 0 14963726.868 -20285391.863 4185027.334 10 0 58023 85500.00000 0 14441529.930 -19767491.711 7310792.475 10 0 58024 0.00000 0 13794583.935 -18875128.158 10295209.001 10 0 58024 900.00000 0 13081686.856 -17609045.331 13080491.056 10 0 58024 1800.00000 0 12361646.891 -15983339.482 15612636.916 10 0 58024 2700.00000 0 11690671.291 -14025094.356 17842470.658 10 0 58024 3600.00000 0 11119874.041 -11773487.674 19726596.222 10 0 58024 4500.00000 0 10693007.682 -9278401.755 21228245.795 10 0 58024 5400.00000 0 10444514.552 -6598593.587 22318005.808 10 0 58024 6300.00000 0 10397980.479 -3799497.366 22974405.849 10 0 58024 7200.00000 0 10565057.535 -950748.431 23184357.883 10 0 58024 8100.00000 0 10944903.292 1876470.554 22943435.828 10 0 58024 9000.00000 0 11524162.685 4612152.187 22255988.244 10 0 58024 9900.00000 0 12277495.861 7190142.960 21135079.890 10 0 58024 10800.00000 0 13168632.272 9550666.333 19602261.245 10 0 58024 11700.00000 0 14151908.675 11642584.336 17687168.438 10 0 58024 12600.00000 0 15174227.647 13425302.026 15426959.711 10 0 58024 13500.00000 0 16177354.541 14870233.791 12865598.110 10 0 58024 14400.00000 0 17100455.669 15961768.738 10052993.706 10 0 58024 15300.00000 0 17882769.229 16697693.587 7044022.128 10 0 58024 16200.00000 0 18466294.172 17089054.896 3897439.317 10 0 58024 17100.00000 0 18798380.849 17159466.738 674715.029 10 0 58024 18000.00000 0 18834111.155 16943894.134 -2561190.039 10 0 58024 18900.00000 0 18538364.979 16486965.555 -5747077.338 10 0 58024 19800.00000 0 17887483.357 15840888.368 -8820766.806 10 0 58024 20700.00000 0 16870456.587 15063058.273 -11722329.446 10 0 58024 21600.00000 0 15489586.384 14213466.894 -14395270.111 10 0 58024 22500.00000 0 13760594.214 13352019.859 -16787635.894 10 0 58024 23400.00000 0 11712172.078 12535880.955 -18853027.679 10 0 58024 24300.00000 0 9384995.928 11816955.955 -20551495.121 10 0 58024 25200.00000 0 6830244.672 11239622.751 -21850298.394 10 0 58024 26100.00000 0 4107688.363 10838803.038 -22724523.208 10 0 58024 27000.00000 0 1283426.723 10638455.392 -23157539.126 10 0 58024 27900.00000 0 -1572627.072 10650551.123 -23141294.485 10 0 58024 28800.00000 0 -4389412.464 10874573.533 -22676444.567 10 0 58024 29700.00000 0 -7097427.439 11297559.030 -21772312.799 10 0 58024 30600.00000 0 -9631363.522 11894676.034 -20446687.695 10 0 58024 31500.00000 0 -11932562.576 12630315.401 -18725461.059 10 0 58024 32400.00000 0 -13951196.235 13459645.317 -16642115.490 10 0 58024 33300.00000 0 -15648080.511 14330564.807 -14237071.585 10 0 58024 34200.00000 0 -16996053.152 15185973.997 -11556907.460 10 0 58024 35100.00000 0 -17980859.389 15966266.589 -8653465.173 10 0 58024 36000.00000 0 -18601511.616 16611941.181 -5582860.352 10 0 58024 36900.00000 0 -18870109.881 17066223.248 -2404413.024 10 0 58024 37800.00000 0 -18811131.877 17277589.269 820481.110 10 0 58024 38700.00000 0 -18460222.650 17202088.318 4029518.732 10 0 58024 39600.00000 0 -17862534.476 16805364.584 7160675.115 10 0 58024 40500.00000 0 -17070685.779 16064296.287 10153387.079 10 0 58024 41400.00000 0 -16142423.490 14968181.825 12949711.147 10 0 58024 42300.00000 0 -15138085.614 13519422.332 15495435.545 10 0 58024 43200.00000 0 -14117969.098 11733670.162 17741125.431 10 0 58024 44100.00000 0 -13139712.356 9639434.520 19643081.676 10 0 58024 45000.00000 0 -12255801.552 7277157.752 21164194.773 10 0 58024 45900.00000 0 -11511305.092 4697797.480 22274677.116 10 0 58024 46800.00000 0 -10941931.818 1960970.374 22952658.837 10 0 58024 47700.00000 0 -10572495.438 -867268.186 23184634.545 10 0 58024 48600.00000 0 -10415851.255 -3716918.781 22965750.829 10 0 58024 49500.00000 0 -10472351.872 -6516705.135 22299927.174 10 0 58024 50400.00000 0 -10729846.996 -9196803.902 21199805.913 10 0 58024 51300.00000 0 -11164229.587 -11691523.778 19686530.110 10 0 58024 52200.00000 0 -11740507.330 -13941821.894 17789351.679 10 0 58024 53100.00000 0 -12414355.738 -15897551.356 15545075.674 10 0 58024 54000.00000 0 -13134088.142 -17519344.628 12997350.272 10 0 58024 54900.00000 0 -13842959.296 -18780052.356 10195815.550 10 0 58024 55800.00000 0 -14481704.301 -19665675.835 7195127.714 10 0 58024 56700.00000 0 -14991203.723 -20175753.055 4053878.479 10 0 58024 57600.00000 0 -15315159.769 -20323181.777 833432.051 10 0 58024 58500.00000 0 -15402667.503 -20133487.610 -2403295.551 10 0 58024 59400.00000 0 -15210569.510 -19643569.367 -5593088.694 10 0 58024 60300.00000 0 -14705491.779 -18899976.747 -8673688.930 10 0 58024 61200.00000 0 -13865472.731 -17956795.792 -11585029.352 10 0 58024 62100.00000 0 -12681115.277 -16873234.383 -14270420.380 10 0 58024 63000.00000 0 -11156212.735 -15711012.608 -16677662.352 10 0 58024 63900.00000 0 -9307822.588 -14531670.702 -18760062.267 10 0 58024 64800.00000 0 -7165785.859 -13393909.864 -20477334.897 10 0 58024 65700.00000 0 -4771713.584 -12351079.002 -21796371.389 10 0 58024 66600.00000 0 -2177484.386 -11448913.088 -22691861.746 10 0 58024 67500.00000 0 556682.739 -10723617.262 -23146761.011 10 0 58024 68400.00000 0 3364499.084 -10200375.287 -23152592.346 10 0 58024 69300.00000 0 6176125.334 -9892342.498 -22709583.448 10 0 58024 70200.00000 0 8920834.711 -9800162.710 -21826635.941 10 0 58024 71100.00000 0 11529710.648 -9912026.498 -20521130.311 10 0 58024 72000.00000 0 13938268.655 -10204265.859 -18818571.762 10 0 58024 72900.00000 0 16088895.936 -10642458.276 -16752084.889 10 0 58024 73800.00000 0 17933010.193 -11182992.479 -14361767.480 10 0 58024 74700.00000 0 19432850.697 -11775029.604 -11693915.964 10 0 58024 75600.00000 0 20562830.026 -12362777.506 -8800136.970 10 0 58024 76500.00000 0 21310392.647 -12887983.426 -5736361.263 10 0 58024 77400.00000 0 21676346.537 -13292541.478 -2561777.979 10 0 58024 78300.00000 0 21674655.423 -13521106.731 662291.688 10 0 58024 79200.00000 0 21331701.008 -13523607.390 3873561.114 10 0 58024 80100.00000 0 20685046.026 -13257550.590 7009964.082 10 0 58024 81000.00000 0 19781749.345 -12690025.535 10010838.411 10 0 58024 81900.00000 0 18676302.544 -11799319.823 12818085.851 10 0 58024 82800.00000 0 17428273.050 -10576080.365 15377286.837 10 0 58024 83700.00000 0 16099751.059 -9023968.669 17638749.467 10 0 58024 84600.00000 0 14752705.788 -7159780.718 19558472.961 10 0 58024 85500.00000 0 13446360.745 -5013023.587 21099007.092 99